Погода в Медведеве

Россия / Пермский край     57°21′15″N   57°29′01″E
темп.,
°C
ветер,
м/с
пор.,
м/с
влажн.,
%
обл.,
%
осадки,
мм/ч
давл.,
гПа
погр.,
м
30 июня, чт
чт3023:00+10сз387897 0.0 1010133
02:00+8зсз2277100 0.0 100913
05:00+8з228065 0.0 100924
08:00+12зсз347479 0.0 1008275
11:00+15сз2363100 0.1 1007795
14:00+15ссв2265100 1.1 10081028
17:00+15ююз336097 1.3 1008905
20:00+14с127394 0.3 100846
1 июля, пт
пт123:00+10в4118710 0.5 1009226
02:00+8в4129047 0.0 1011323
05:00+8в513878 0.0 1013368
08:00+11в587669 0.0 1014432
11:00+16всв45605 0.0 10141051
14:00+19св345191 0.0 10131999
17:00+19с235136 0.0 10131347
20:00+16ссз367487 0.0 1013129
2 июля, сб
сб223:00+11ссв348451 0.0 101464
02:00+10св228667 0.0 101511
05:00+9ссв11875 0.0 101410
08:00+14с12755 0.0 1014207
11:00+18ссз22626 0.0 1014800
14:00+19зсз22536 0.0 10131449
17:00+20ссз215212 0.0 10131360
20:00+19св11675 0.0 101211
3 июля, вс
вс323:00+13ююв11771 0.0 101210
02:00+11ссз11805 0.0 101210
05:00+11юз008326 0.0 101110
08:00+15зсз117372 0.0 1010196
11:00+18ссз346866 0.0 1010725
14:00+16ссз568492 1.4 1009430
17:00+15с468698 3.0 1009458
20:00+14св589199 0.3 1009485
4 июля, пн
пн423:00+12св4119196 0.3 1010508
02:00+12св4991100 0.1 1011455
05:00+11св4789100 0.1 1012540
08:00+12св577646 0.0 1014812
11:00+16св575594 0.0 10141903
14:00+18ссв5649100 0.0 10132054
17:00+19с475562 0.0 10132113
20:00+17ссз257256 0.0 1013145